Location: Unspecified
(0.0000°N, 0.0000°E)
Time: 19:49:37
(UTC+02:00)

ATLAS 2AS CENTAUR R/B - Visible Passes

Search period start: 29 April 2016 00:00
Search period end: 09 May 2016 00:00
Orbit: 904 x 1308 km, 63.7° (Epoch: 24 April)

Date Brightness Start Highest point End Pass type
(mag) Time Alt. Az. Time Alt. Az. Time Alt. Az.
04 May 5.0 22:35:40 10° NNE 22:36:18 12° NNE 22:36:18 12° NNE visible
05 May 5.3 23:40:18 10° NNW 23:40:50 12° NNW 23:40:50 12° NNW visible
06 May 4.6 22:55:32 10° NNW 22:57:58 22° N 22:57:58 22° N visible
07 May 4.1 22:11:25 10° N 22:15:08 26° NNE 22:15:08 26° NNE visible
08 May 4.2 21:28:13 10° NNE 21:32:23 19° NE 21:32:23 19° NE visible
08 May 4.7 23:17:08 10° NW 23:19:51 23° NW 23:19:51 23° NW visible
